Погода в Ярославке

Украина / Хмельницкая область     49°28′52″N   27°18′36″E
темп.,
°C
ветер,
м/с
пор.,
м/с
влажн.,
%
обл.,
%
осадки,
мм/ч
давл.,
гПа
погр.,
м
26 июля, пн
пн2600:00+20вюв376410 0.0 1019174
03:00+16юв337558 0.0 101932
06:00+16юв347132 0.0 101951
09:00+20юв4967100 0.0 1019306
12:00+25ююв695224 0.0 1019984
15:00+27ю674378 0.0 10181925
18:00+26ю575094 0.0 1017942
21:00+21юв367042 0.0 101788
27 июля, вт
вт2700:00+19юв47725 0.0 1018120
03:00+18ююв397053 0.0 1018165
06:00+17ююв411690 0.0 1017198
09:00+22ююв51068100 0.8 1017370
12:00+25ююв685762 2.5 1017597
15:00+29ю56489 2.5 10161099
18:00+26ю486097 0.0 1015152
21:00+22ююз497511 0.1 1015175
28 июля, ср
ср2800:00+19ююз37885 1.4 1016120
03:00+18зюз38905 1.7 1015130
06:00+18зюз34936 0.1 101573
09:00+22ссз46837 0.3 1015374
12:00+27зсз345865 0.0 10151200
15:00+29сз34475 0.0 10141705
18:00+29сз23455 0.0 10141680
21:00+23сз11670 0.0 101411
29 июля, чт
чт2900:00+21юв11756 0.0 101411
03:00+19юв118127 0.4 101311
06:00+19ю238459 0.6 101356
09:00+23ю35805 0.6 1013263
12:00+29з345116 0.0 10121089
15:00+30з554534 0.0 10121871
18:00+28з56550 0.0 10111431
21:00+22сз597524 0.0 1013335
30 июля, пт
пт3000:00+18зсз3794100 0.0 1013134
03:00+17зсз249524 0.0 101384
06:00+17сз23950 0.0 101344
09:00+22сз23740 0.0 1013419
12:00+26з22490 0.0 10121176
15:00+29зюз23390 0.0 10111536
18:00+30юз23400 0.0 10101512
21:00+23ююв33614 0.0 100941